Regional Weather Roundup
Issued by NWS Charleston, SC

Current Version | Previous Version | Text Only | Print | Product List | Glossary Off
Versions: 1 2 3 4 5 6 7 8 9 10 11 12 13 14 15 16 17 18 19 20 21 22 23 24 25 26 27 28 29 30 31 32 33 34 35 36 37 38 39 40 41 42 43 44 45 46 47 48 49 50

000
ASUS42 KCHS 010312
RWRCHS

REGIONAL WEATHER ROUNDUP
NATIONAL WEATHER SERVICE CHARLESTON SC
1100 PM EDT FRI JUL 31 2015

NOTE: "FAIR" INDICATES FEW OR NO CLOUDS BELOW 12,000 FEET WITH NO
SIGNIFICANT WEATHER AND/OR OBSTRUCTIONS TO VISIBILITY.

NOT ALL STATIONS ARE QUALITY CONTROLLED BY THE NATIONAL
WEATHER SERVICE. USE DATA WITH CAUTION...ESPECIALLY
DEWPOINT OBSERVATIONS.

SCZ027-030-031-034>040-042>050-010400-
...SOUTHEAST SOUTH CAROLINA...

CITY           SKY/WX    TMP DP  RH WIND       PRES   REMARKS
N CHARLESTON   CLOUDY    80  75  84 SW3       29.95S
WATERFRONT PRK   N/A     83  78  84 S7        29.93R HX  93
MOUNT PLEASANT CLOUDY    82  77  83 CALM      29.95S HX  91
JOHNS ISLAND   MOCLDY    82  77  83 S8        29.94F HX  91
PINOPOLIS      NOT AVBL
MONCKS CORNER  FAIR      77  73  88 CALM      29.95S
SUMMERVILLE    FAIR      77  77 100 CALM      29.96S
BEAUFORT MCAS  CLOUDY    78  75  90 CALM      29.95R
BEAUFORT ARPT  FAIR      79  77  94 CALM      29.94S
HILTON HEAD IS CLOUDY    82  79  89 S6        29.95S HX  93
WALTERBORO     MOCLDY    77  75  94 CALM      29.96S
ALLENDALE      FAIR      77  73  88 CALM      29.94S

...SOUTHERN MIDLANDS AND PEE DEE...

CITY           SKY/WX    TMP DP  RH WIND       PRES   REMARKS
GEORGETOWN     NOT AVBL
KINGSTREE      NOT AVBL
ORANGEBURG     PTCLDY    76  73  91 SE5       29.96R
BARNWELL       FAIR      79  73  83 SW3       29.96S
AIKEN          FAIR      79  68  69 S3        30.00R
MANNING        RAIN      75  72  88 CALM      29.94F
COLUMBIA       MOCLDY    83  71  67 S7        29.94R
SUMTER         CLEAR     80  72  77 SW3       29.93S
FLORENCE       PTCLDY    79  71  76 CALM      29.93S
MYRTLE BEACH   CLOUDY    79  72  78 S6        29.95S
N MYRTLE BEACH LGT RAIN  77  75  93 S3        29.92F

$$

GAZ063-065-086>088-099>101-113>116-118-119-134>141-150-010400-
...SOUTHEAST GEORGIA...

CITY           SKY/WX    TMP DP  RH WIND       PRES   REMARKS
SAVANNAH ARPT  CLOUDY    78  74  87 CALM      29.94S
HUNTER AAF     CLOUDY    78  77  96 S3        29.91F
FORT STEWART   NOT AVBL
STATESBORO     CLOUDY    74  32  21 CALM      29.95S
SYLVANIA       MOCLDY    76  75  99 CALM      29.96S
CLAXTON        NOT AVBL

...CSRA...CENTRAL AND FAR SOUTHEAST GEORGIA...

CITY           SKY/WX    TMP DP  RH WIND       PRES   REMARKS
THOMSON        PTCLDY    81  75  83 CALM      30.00R
AUGUSTA-BUSH   PTCLDY    78  73  84 CALM      29.94R
AUGUSTA-DANIEL PTCLDY    81  72  74 S6        29.97R
SWAINSBORO     FAIR     N/A N/A N/A CALM      29.97R
VIDALIA        CLOUDY    75  72  88 CALM      29.96R
EASTMAN        MOCLDY    75  75 100 CALM      29.98R FOG
HAZLEHURST     FAIR      79  78  96 CALM      29.95R
ALMA           CLOUDY    76  73  91 CALM      29.95R
WAYCROSS       CLOUDY    78  77  96 CALM      29.89F
JESUP          FAIR      79  77  94 CALM      29.95S
BAXLEY         FAIR      79  73  83 CALM      29.95R
BRUNSWICK      CLOUDY    77  73  88 CALM      29.95S
SAINT SIMONS   CLOUDY    76  74  93 CALM      29.94S

$$

SCZ027-028-034-036>038-045-046-048>050-GAZ119-141-010400-
...LAKE AND SUPPLEMENTAL COASTAL OBSERVATIONS...

STATION/POSITION TIME  TEMP    WIND        PRES    WAVE   SWELL
                       AIR SEA DIR/SP/G            HT/PER HT/PER/DIR
                 (UTC) (F)     (DEG/KT/KT) (MB)    (FT/S) (FT/S/D)
UPR LAKE MARION  NOT AVBL
WINYAH BAY       NOT AVBL
LAKE MURRAY      0200   88      70/  1/ 10 1012.9R
ACE BASIN NERRS  NOT AVBL
FORT PULASKI     0200   82 86  210/  9/ 14 1014.4R
SAPELO ISLAND    0200   79     220/  7     1014.0R

$$

ANZ835-935-AMZ111-154-330-350-352-354-370-450-454-472-010400-
...C-MAN AND BUOY OBSERVATIONS...

STATION/POSITION TIME  TEMP    WIND        PRES    WAVE   SWELL
                       AIR SEA DIR/SP/G            HT/PER HT/PER/DIR
                 (UTC) (F)     (DEG/KT/KT) (MB)    (FT/S) (FT/S/D)
BUOY 41004       0250   84 84  210/ 14/ 16 1013.9R   3/ 7   2/ 7
BUOY 41008       0250   81 83  250/ 10/ 12 1014.0R   3/ 5   2/120/ 8
FOLLY BEACH CMAN 0300   83     210/ 14/ 17 1014.2F
CAPERS NEARSHORE 0208   83     220/ 14/ 16 1014.4R
FRIPP NEARSHORE  0200   83     230/ 14/ 16 1013.5R


STATION/POSITION TIME  TEMP    WIND        PRES    WAVE   SWELL
                       AIR SEA DIR/SP/G            HT/PER HT/PER/DIR
                 (UTC) (F)     (DEG/KT/KT) (MB)    (FT/S) (FT/S/D)
5E ST. MARYS GA  0221      83                N/A     3/ 5
FRYING PAN BUOY  0250   84 84  230/ 19/ 21 1013.9F   4/ 6   2/140/ 7
BUOY 41025       0250   82 85   10/  2/  6 1014.5R   4/ 8   3/170/ 8
CAPE LOOKOUT NC  0200   79     270/  5/  6 1013.3R
BUOY 41002       0250   82 81  240/ 17/ 19 1016.4R   7/ 7   2/ 30/13
BUOY 41010       0220   79 84  250/ 17/ 19 1016.8R
ST AUGUSTINE FL  0300   80 82  190/  6/  6 1015.7R


$$



USA.gov is the U.S. government's official web portal to all federal, state and local government web resources and services.